Meteopurmerend
purmerend
Purmerend - Baaienwijk



My webcam  My webcam


Onweer radar Meer informatie blitzortung!


Regen radar Meer informatie rain snow radar


Bezoek onze andere website:

CandyAppleRed WebdesignWebdesign Purmerend Candy Apple Red

MeteopurmerendBlog

Template documentation
and downloads



Het weer levert geen direct gevaar op.    Er zijn geen waarschuwingen afgegeven.

15 daagse weersverwachting Villach (AT)

  • Overzicht
  • Per uur
  • 15 dagen
  • Extra
  • Vergelijk
  • Kaarten
  • Dagkaart
  • Meer »
  • Info
  • Statistieken
  • Directe link
    Temp 6h Neerslag Wind  
 05:20     20:44    Daglengte: 15:24 Vandaag
08:00
15°
 
1
14:00
19°
 
2
20:00
19°
 
1
 05:19     20:45    Daglengte: 15:26 Morgen
02:00
15°
 
1
08:00
17°
 
1
14:00
24°
 
1
20:00
20°
5.6 mm
2
warningclass
 05:18     20:46    Daglengte: 15:28 Zaterdag 28 Mei
02:00
16°
6.9 mm
1
08:00
16°
18.6 mm
2
14:00
15°
17.0 mm
3
20:00
12°
21.1 mm
2
 05:18     20:47    Daglengte: 15:29 Zondag 29 Mei
02:00
20.0 mm
2
Locatie info
Region: Kärnten
Latitude: 46.6181°N
Longitude: 13.8493°E
494 masl
Postcode: 9500
Temp/Neerslag /Baro Onweer/Dauwpunt
    Temp Baro 1h Neerslag Dauwpunt Wind UV Bewolking  
 05:20     20:44    Daglengte: 15:24 Vandaag
07:00
14°
1022.4 hPa
14%
12.8°
1
Windvlaag: -0.8 m/s
80%
08:00
15°
1022.9 hPa
24%
12.8°
1
Windvlaag: -1 m/s
71%
09:00
15°
1023.1 hPa
22%
12.1°
1
Windvlaag: -1 m/s
70%
10:00
16°
1023.3 hPa
27%
10.4°
2
Windvlaag: -1.6 m/s
72%
11:00
17°
1023.4 hPa
22%
9.2°
2
Windvlaag: -2 m/s
65%
12:00
18°
1023.4 hPa
17%
9.2°
2
Windvlaag: -2 m/s
65%
13:00
18°
1022.9 hPa
18%
9.8°
2
Windvlaag: -1.1 m/s
57%
14:00
19°
1022.5 hPa
16%
10.7°
2
Windvlaag: -0 m/s
20%
15:00
20°
1021.9 hPa
15%
10.8°
2
Windvlaag: -0 m/s
16%
16:00
20°
1021.4 hPa
16%
10.8°
2
Windvlaag: -1.3 m/s
22%
17:00
21°
1021.0 hPa
16%
10.8°
2
Windvlaag: -1.6 m/s
19%
18:00
21°
1020.7 hPa
19%
10.7°
2
Windvlaag: -1 m/s
22%
19:00
20°
1020.7 hPa
20%
11.8°
2
Windvlaag: -0.2 m/s
44%
20:00
19°
1021.1 hPa
15%
11.9°
1
Windvlaag: -0.4 m/s
43%
21:00
18°
1021.7 hPa
16%
13.3°
1
Windvlaag: -0 m/s
50%
22:00
17°
1022.2 hPa
20%
14.4°
1
Windvlaag: 0.1 m/s
49%
23:00
16°
1022.5 hPa
19%
14.4°
1
Windvlaag: -0.2 m/s
43%
 05:19     20:45    Daglengte: 15:26 Morgen
00:00
16°
1022.6 hPa
18%
14.5°
1
Windvlaag: 0.7 m/s
46%
01:00
15°
1022.4 hPa
18%
14.2°
1
Windvlaag: 1.1 m/s
18%
02:00
15°
1022.1 hPa
19%
13.9°
1
Windvlaag: 1.3 m/s
17%
03:00
14°
1021.8 hPa
17%
13.5°
1
Windvlaag: 1.1 m/s
17%
04:00
14°
1021.6 hPa
19%
13.3°
1
Windvlaag: 1.1 m/s
14%
05:00
13°
1021.3 hPa
17%
12.9°
1
Windvlaag: 1.3 m/s
16%
06:00
14°
1021.4 hPa
20%
13.1°
1
Windvlaag: 1.1 m/s
21%
07:00
15°
1021.4 hPa
18%
13.4°
1
Windvlaag: 1.2 m/s
48%
08:00
17°
1021.1 hPa
17%
13.3°
1
Windvlaag: 1.1 m/s
41%
09:00
18°
1020.8 hPa
15%
11.7°
1
Windvlaag: -0.3 m/s
50%
10:00
20°
1020.3 hPa
14%
11.5°
1
Windvlaag: -0.7 m/s
18%
11:00
21°
1019.5 hPa
15%
11.6°
1
Windvlaag: 0.8 m/s
27%
12:00
22°
1018.8 hPa
15%
12.4°
1
Windvlaag: 1 m/s
15%
13:00
23°
1018.0 hPa
15%
17.2°
1
Windvlaag: 0.8 m/s
11%
14:00
24°
1016.8 hPa
23%
18.3°
1
Windvlaag: -2.6 m/s
21%
15:00
23°
1015.7 hPa
67%
18.7°
1
Windvlaag: -1.1 m/s
35%
16:00
24°
1015.1 hPa
79%
18.6°
2
Windvlaag: -0.9 m/s
26%
17:00
23°
1015.0 hPa 1.8 mm
82%
17.4°
1
Windvlaag: -1 m/s
37% warningclass
18:00
22°
1014.9 hPa 1.7 mm
82%
17.5°
1
Windvlaag: -1.1 m/s
41% warningclass
19:00
22°
1014.8 hPa
37%
18.1°
1
Windvlaag: 1.6 m/s
40%
20:00
20°
1015.1 hPa 2.1 mm
74%
18.3°
2
Windvlaag: 0.5 m/s
39% warningclass
21:00
19°
1015.4 hPa
72%
17.6°
1
Windvlaag: 0.9 m/s
40%
22:00
18°
1016.3 hPa 3.9 mm
78%
16.5°
1
Windvlaag: 1.2 m/s
65%
23:00
17°
1016.2 hPa
30%
15.9°
1
Windvlaag: 1.3 m/s
42%
 05:18     20:46    Daglengte: 15:28 Zaterdag 28 Mei
00:00
17°
1016.1 hPa
73%
15.7°
1
Windvlaag: 1.5 m/s
86%
01:00
16°
1015.7 hPa
40%
15.2°
1
Windvlaag: 2.3 m/s
86%
02:00
16°
1015.4 hPa 3.0 mm
80%
15.0°
1
Windvlaag: 1.8 m/s
86%
03:00
16°
1014.9 hPa 2.7 mm
76%
14.6°
1
Windvlaag: 0.9 m/s
86%
04:00
15°
1014.5 hPa 2.5 mm
76%
13.9°
1
Windvlaag: 0.8 m/s
48%
05:00
15°
1013.8 hPa 2.3 mm
92%
12.2°
1
Windvlaag: 1.8 m/s
76%
06:00
15°
1013.8 hPa 3.6 mm
95%
12.1°
1
Windvlaag: 0 m/s
68%
07:00
15°
1013.9 hPa 3.7 mm
99%
10.4°
1
Windvlaag: -0.7 m/s
80%
08:00
16°
1014.0 hPa 3.8 mm
97%
10.0°
2
Windvlaag: 0.1 m/s
82%
09:00
16°
1014.0 hPa 3.8 mm
98%
9.4°
2
Windvlaag: -0.5 m/s
93%
10:00
16°
1014.0 hPa 2.2 mm
97%
8.3°
2
Windvlaag: -1 m/s
91%
11:00
15°
1014.0 hPa 2.5 mm
93%
5.8°
2
Windvlaag: -1 m/s
84%
12:00
15°
1014.0 hPa 2.4 mm
94%
3.8°
2
Windvlaag: -1.2 m/s
84%
13:00
15°
1014.1 hPa 2.3 mm
94%
2.3°
3
Windvlaag: -1.7 m/s
85%
14:00
15°
1014.1 hPa 3.9 mm
94%
0.2°
3
Windvlaag: -1.8 m/s
91%
15:00
14°
1014.2 hPa 5.0 mm
93%
-1.2°
3
Windvlaag: -1.9 m/s
91%
16:00
13°
1014.4 hPa 3.9 mm
98%
-1.8°
3
Windvlaag: -1 m/s
97%
17:00
13°
1014.4 hPa 3.6 mm
97%
-2.4°
3
Windvlaag: -0.4 m/s
98%
18:00
13°
1014.4 hPa 3.0 mm
99%
-1.9°
3
Windvlaag: 1.3 m/s
97%
19:00
12°
1014.5 hPa 2.7 mm
100%
-0.8°
3
Windvlaag: 1.7 m/s
97%
20:00
12°
1014.6 hPa 2.9 mm
100%
0.2°
2
Windvlaag: 1.2 m/s
96%
21:00
12°
1014.9 hPa 2.8 mm
100%
-0.1°
2
Windvlaag: 0.8 m/s
95%
22:00
11°
1015.1 hPa 2.9 mm
100%
1.7°
2
Windvlaag: 1.2 m/s
98%
23:00
11°
1015.3 hPa 3.2 mm
100%
3.2°
3
Windvlaag: 1.3 m/s
97%
 05:18     20:47    Daglengte: 15:29 Zondag 29 Mei
00:00
10°
Voelt als: 9.0°
1015.1 hPa 3.9 mm
100%
2.3°
2
Windvlaag: 6.1 m/s
93%
01:00
10°
Voelt als: 8.5°
1014.8 hPa 3.7 mm
100%
2.4°
2
Windvlaag: 5.9 m/s
92%
02:00
Voelt als: 7.6°
1014.3 hPa 3.6 mm
100%
3.8°
2
Windvlaag: 7.1 m/s
88%
03:00
Voelt als: 7.6°
1014.0 hPa 4.2 mm
100%
1.8°
2
Windvlaag: 7.2 m/s
83%
04:00
Voelt als: 6.9°
1013.7 hPa 4.9 mm
100%
2.0°
2
Windvlaag: 7.3 m/s
87%
05:00
Voelt als: 6.3°
1013.4 hPa 4.5 mm
100%
1.3°
1
Windvlaag: 7.6 m/s
84%
06:00
Voelt als: 6.6°
1013.4 hPa 4.4 mm
100%
-0.4°
1
Windvlaag: 7.2 m/s
80%
Temp/Neerslag /Baro Onweer/Dauwpunt
    Temp Baro Neerslag Dauwpunt Wind Bewolking  
 05:20     20:44    Daglengte: 15:24 Vandaag
08:00
15°
1022.9 hPa   12.8°
1
71%
11:00
17°
1023.4 hPa   9.2°
2
65%
14:00
19°
1022.5 hPa   10.7°
2
20%
17:00
21°
1021.0 hPa   10.8°
2
19%
20:00
19°
1021.1 hPa   11.9°
1
43%
23:00
16°
1022.5 hPa   14.4°
1
43%
 05:19     20:45    Daglengte: 15:26 Morgen
02:00
15°
1022.1 hPa   13.9°
1
17%
05:00
13°
1021.3 hPa   12.9°
1
16%
08:00
17°
1021.1 hPa   13.3°
1
41%
11:00
21°
1019.5 hPa   11.6°
1
27%
14:00
24°
1016.8 hPa   18.3°
1
21%
17:00
23°
1015.0 hPa 1.8 mm 17.4°
1
37% warningclass
20:00
20°
1015.1 hPa 3.8 mm 18.3°
2
39% warningclass
23:00
17°
1016.2 hPa 3.9 mm 15.9°
1
42%
 05:18     20:46    Daglengte: 15:28 Zaterdag 28 Mei
02:00
16°
1015.4 hPa 3.0 mm 15.0°
1
86%
05:00
15°
1013.8 hPa 7.5 mm 12.2°
1
76%
08:00
16°
1014.0 hPa 11.0 mm 10.0°
2
82%
11:00
15°
1014.0 hPa 8.5 mm 5.8°
2
84%
14:00
15°
1014.1 hPa 8.5 mm 0.2°
3
91%
17:00
13°
1014.4 hPa 12.5 mm -2.4°
3
98%
20:00
12°
1014.6 hPa 8.7 mm 0.2°
2
96%
23:00
11°
1015.3 hPa 8.8 mm 3.2°
3
97%
 05:18     20:47    Daglengte: 15:29 Zondag 29 Mei
02:00
Voelt als: 7.6°
1014.3 hPa 11.2 mm 3.8°
2
88%
05:00
Voelt als: 6.3°
1013.4 hPa 13.7 mm 1.3°
1
84%
08:00
Voelt als: 6.0°
1013.2 hPa 13.7 mm -2.5°
2
80%
11:00
11°
1014.1 hPa 23.9 mm 7.8°
2
1%
14:00
16°
1010.4 hPa 24.1 mm 6.0°
2
1%
17:00
15°
1009.3 hPa 24.1 mm 5.4°
3
1%
20:00
12°
1010.5 hPa 24.1 mm 8.5°
2
1%
23:00
Voelt als: 7.7°
1012.8 hPa 24.1 mm 7.1°
0
1%
 05:17     20:48    Daglengte: 15:31 Maandag 30 Mei
02:00
1012.3 hPa 24.1 mm 6.1°
1
1%
05:00
1012.2 hPa 24.1 mm 5.3°
1
1%
08:00
11°
1011.6 hPa 24.1 mm 8.0°
1
1%
11:00
16°
1010.2 hPa 24.1 mm 6.0°
1
0%
14:00
17°
1010.1 hPa 24.1 mm 9.2°
1
1%
17:00
18°
1010.7 hPa 24.3 mm 10.4°
2
1%
20:00
14°
1012.5 hPa 24.3 mm 11.7°
2
1%
23:00
10°
1015.8 hPa 24.4 mm 10.0°
1
0%
 05:16     20:49    Daglengte: 15:33 Dinsdag 31 Mei
02:00
10°
Voelt als: 9.2°
1016.9 hPa 24.4 mm 9.2°
1
0%
05:00
Voelt als: 8.9°
1017.7 hPa 24.4 mm 8.9°
1
0%
08:00
14°
1017.0 hPa 24.4 mm 10.8°
1
1%
11:00
20°
1016.0 hPa 24.4 mm 10.8°
1
1%
14:00
23°
1015.1 hPa 24.4 mm 13.2°
2
1%
17:00
23°
1014.2 hPa 24.4 mm 13.2°
3
1%
20:00
17°
1015.8 hPa 24.4 mm 15.2°
2
0%
23:00
13°
1018.1 hPa 24.4 mm 12.9°
2
0%
 05:16     20:50    Daglengte: 15:34 Woensdag 01 Jun
02:00
13°
1017.9 hPa 24.4 mm 12.2°
2
0%
05:00
13°
1016.9 hPa 24.4 mm 12.9°
2
1%
08:00
18°
1017.2 hPa 24.4 mm 15.0°
2
1%
11:00
24°
1016.6 hPa 24.4 mm 14.4°
1
0%
14:00
27°
1015.3 hPa 24.4 mm 14.0°
2
0%
17:00
27°
1015.1 hPa 24.4 mm 16.2°
3
0%
20:00
21°
1016.8 hPa 24.4 mm 18.1°
2
0%
23:00
17°
1018.6 hPa 24.4 mm 15.5°
2
1%
 05:15     20:51    Daglengte: 15:36 Donderdag 02 Jun
02:00
16°
1018.3 hPa 24.4 mm 14.7°
2
1%
05:00
16°
1017.2 hPa   13.6°
2
1%
08:00
21°
1016.1 hPa 48.8 mm 14.9°
2
0%
14:00
30°
Voelt als: 29.8°
1014.4 hPa 48.8 mm 14.0°
3
0%
20:00
22°
1015.6 hPa 48.8 mm 18.2°
2
0%
 05:15     20:52    Daglengte: 15:37 Vrijdag 03 Jun
02:00
17°
1017.4 hPa 48.8 mm 13.1°
2
0%
08:00
22°
1017.6 hPa 48.8 mm 16.7°
0
0%
14:00
31°
Voelt als: 30.4°
1014.7 hPa 48.8 mm 14.5°
3
0%
20:00
23°
1014.8 hPa 48.8 mm 18.7°
2
0%
 05:14     20:52    Daglengte: 15:38 Zaterdag 04 Jun
02:00
18°
1016.3 hPa 48.8 mm 13.5°
2
0%
08:00
22°
1017.7 hPa 48.8 mm 16.9°
1
0%
14:00
31°
Voelt als: 30.1°
1015.6 hPa 48.8 mm 14.6°
1
0%
20:00
23°
1016.2 hPa 48.8 mm 17.7°
2
1%
 05:14     20:53    Daglengte: 15:39 Zondag 05 Jun
02:00
14°
1015.1 hPa 2.5 mm 13.4°
1
70%
08:00
17°
1014.3 hPa 1.5 mm 14.7°
1
67%
14:00
22°
1012.7 hPa 2.4 mm 15.4°
1
67%
20:00
17°
1012.4 hPa 3.7 mm 15.6°
0
74%
 05:13     20:54    Daglengte: 15:41 Maandag 06 Jun
02:00
14°
1013.7 hPa 2.8 mm 12.9°
1
71%
08:00
16°
1013.2 hPa 1.5 mm 14.0°
1
67%
14:00
21°
1012.3 hPa 2.5 mm 14.5°
1
64%
20:00
17°
1012.2 hPa 2.6 mm 14.9°
0
73%
 05:13     20:55    Daglengte: 15:42 Dinsdag 07 Jun
02:00
13°
1013.8 hPa 1.4 mm 12.1°
1
65%
08:00
16°
1013.6 hPa 1.4 mm 13.5°
1
63%
14:00
21°
1012.1 hPa 2.6 mm 14.7°
1
65%
20:00
17°
1012.1 hPa 3.1 mm 14.8°
0
77%
 05:13     20:55    Daglengte: 15:42 Woensdag 08 Jun
02:00
13°
1013.7 hPa 2.2 mm 12.3°
1
69%
08:00
15°
1013.8 hPa 1.3 mm 13.6°
1
68%
14:00
21°
1012.7 hPa 1.7 mm 13.8°
1
62%
20:00
17°
1012.9 hPa 2.9 mm 14.9°
0
68%
 05:13     20:56    Daglengte: 15:43 Donderdag 09 Jun
02:00
13°
1014.3 hPa 1.9 mm 12.1°
1
58%
08:00
16°
1014.4 hPa 0.5 mm 13.5°
1
60%
14:00
22°
1013.5 hPa 1.8 mm 13.7°
1
55%
20:00
18°
1013.7 hPa 1.7 mm 15.1°
1
58%
 05:12     20:57    Daglengte: 15:45 Vrijdag 10 Jun
02:00
13°
1015.5 hPa 0.6 mm 12.2°
1
53%
  CAPE Lifted Index Hail Supercell Tornado SRH 3km CL BTM PRES CL TOP PRES Swiss DWD icon SMHI TS
 05:20     20:44    Daglengte: 15:24 Vandaag
07:00 0 J/kg 3.9 K 0 % 0 % 0 % 0 m²/s² 0 0 5.61 3
08:00 0 J/kg 4.2 K 0 % 0 % 0 % 0 m²/s² 0 0 6.15 3
09:00 0 J/kg 4.3 K 0 % 0 % 0 % 0 m²/s² 0 0 6.01 3
10:00 0 J/kg 4.1 K 0 % 0 % 0 % 0 m²/s² 0 0 5.75 3
11:00 0 J/kg 3.3 K 0 % 0 % 0 % 0 m²/s² 0 0 5.01 3
12:00 13 J/kg 1.8 K 0 % 0 % 0 % 0 m²/s² 0 0 3.57 3
13:00 55 J/kg 0.5 K 0 % 0 % 0 % 0 m²/s² 0 0 2.27 3
14:00 194 J/kg -0.5 K 0 % 0 % 0 % 0 m²/s² 0 0 1.27 2
15:00 465 J/kg -2.2 K 0 % 0 % 0 % 0 m²/s² 0 0 -0.31 2
16:00 570 J/kg -2.6 K 0 % 0 % 0 % 0 m²/s² 0 0 -1.07 2
17:00 580 J/kg -2.7 K 0 % 0 % 0 % 0 m²/s² 0 0 -0.93 2
18:00 571 J/kg -2.7 K 0 % 0 % 0 % 0 m²/s² 0 0 -0.99 3
19:00 624 J/kg -2.6 K 0 % 0 % 0 % 0 m²/s² 0 0 -1.73 3
20:00 421 J/kg -2.7 K 0 % 0 % 0 % 0 m²/s² 0 0 -1.83 3
21:00 247 J/kg -2.6 K 0 % 0 % 0 % 0 m²/s² 0 0 -2.24 3
22:00 219 J/kg -2.3 K 0 % 0 % 0 % 0 m²/s² 0 0 -1.85 3
23:00 174 J/kg -1.7 K 0 % 0 % 0 % 0 m²/s² 0 0 -0.95 3
 05:19     20:45    Daglengte: 15:26 Morgen
00:00 180 J/kg -1.5 K 0 % 0 % 0 % 0 m²/s² 0 0 -0.75 3
01:00 68 J/kg -1.5 K 0 % 0 % 0 % 0 m²/s² 0 0 -0.6 2
02:00 2 J/kg -1.6 K 0 % 0 % 0 % 0 m²/s² 0 0 -0.13 2
03:00 0 J/kg -1.5 K 0 % 0 % 0 % 0 m²/s² 0 0 -0.45 2
04:00 0 J/kg -1.4 K 0 % 0 % 0 % 0 m²/s² 0 0 -0.14 2
05:00 0 J/kg -1.3 K 0 % 0 % 0 % 0 m²/s² 0 0 0.02 2
06:00 0 J/kg -1.5 K 0 % 0 % 0 % 0 m²/s² 0 0 0.21 3
07:00 0 J/kg -1.2 K 0 % 0 % 0 % 0 m²/s² 0 0 0.96 3
08:00 0 J/kg -1.3 K 0 % 0 % 0 % 0 m²/s² 0 0 0.29 3
09:00 1 J/kg -0.8 K 0 % 0 % 0 % 0 m²/s² 0 0 1.15 3
10:00 150 J/kg -1.0 K 0 % 0 % 0 % 0 m²/s² 0 0 0.95 2
11:00 513 J/kg -2.2 K 0 % 0 % 0 % 0 m²/s² 0 0 -0.37 3
12:00 972 J/kg -3.4 K 0 % 0 % 0 % 0 m²/s² 0 0 -1.93 2
13:00 1395 J/kg -4.5 K 0 % 0 % 0 % 0 m²/s² 0 0 -2.73 1
14:00 1473 J/kg -4.7 K 0 % 0 % 0 % 0 m²/s² 0 0 -2.45 0
15:00 1191 J/kg -4.0 K 0 % 0 % 0 % 0 m²/s² 0 0 -2.02 3
16:00 1278 J/kg -3.9 K 0 % 0 % 0 % 0 m²/s² 0 0 -2.04 3
17:00 1009 J/kg -3.5 K 0 % 0 % 0 % 0 m²/s² 0 0 -3.32 80
18:00 847 J/kg -3.5 K 0 % 0 % 0 % 0 m²/s² 0 0 -2.48 80
19:00 710 J/kg -3.1 K 0 % 0 % 0 % 0 m²/s² 0 0 -2.89 3
20:00 727 J/kg -2.3 K 0 % 0 % 0 % 0 m²/s² 0 0 -2.03 80
21:00 612 J/kg -2.0 K 0 % 0 % 0 % 0 m²/s² 0 0 -0.95 3
22:00 393 J/kg -1.6 K 0 % 0 % 0 % 0 m²/s² 0 0 0.62 81
23:00 224 J/kg -1.3 K 0 % 0 % 0 % 0 m²/s² 0 0 1.07 3
 05:18     20:46    Daglengte: 15:28 Zaterdag 28 Mei
00:00 97 J/kg -0.5 K 0 % 0 % 0 % 0 m²/s² 0 0 1.15 3
01:00 13 J/kg 0.8 K 0 % 0 % 0 % 0 m²/s² 0 0 2.09 3
02:00 18 J/kg 1.5 K 0 % 0 % 0 % 0 m²/s² 0 0 2.34 80
03:00 14 J/kg 1.8 K 0 % 0 % 0 % 0 m²/s² 0 0 2.13 3
04:00 2 J/kg 2.3 K 0 % 0 % 0 % 0 m²/s² 0 0 2.57 3
05:00 0 J/kg 3.2 K 0 % 0 % 0 % 0 m²/s² 0 0 3.68 45
06:00 0 J/kg 4.3 K 0 % 0 % 0 % 0 m²/s² 0 0 4.54 45
07:00 0 J/kg 6.2 K 0 % 0 % 0 % 0 m²/s² 0 0 6.38 3
08:00 0 J/kg 7.0 K 0 % 0 % 0 % 0 m²/s² 0 0 7.21 3
09:00 0 J/kg 6.8 K 0 % 0 % 0 % 0 m²/s² 0 0 7.04 3
10:00 2 J/kg 6.8 K 0 % 0 % 0 % 0 m²/s² 0 0 7.31 80
11:00 5 J/kg 6.8 K 0 % 0 % 0 % 0 m²/s² 0 0 7.67 80
12:00 15 J/kg 6.9 K 0 % 0 % 0 % 0 m²/s² 0 0 8.55 80
13:00 12 J/kg 6.8 K 0 % 0 % 0 % 0 m²/s² 0 0 9.14 80
14:00 3 J/kg 6.8 K 0 % 0 % 0 % 0 m²/s² 0 0 9.35 3
15:00 3 J/kg 7.0 K 0 % 0 % 0 % 0 m²/s² 0 0 8.71 3
16:00 0 J/kg 7.1 K 0 % 0 % 0 % 0 m²/s² 0 0 8.06 61
17:00 1 J/kg 7.8 K 0 % 0 % 0 % 0 m²/s² 0 0 8.82 61
18:00 2 J/kg 8.1 K 0 % 0 % 0 % 0 m²/s² 0 0 8.97 61
19:00 4 J/kg 8.7 K 0 % 0 % 0 % 0 m²/s² 0 0 9.33 61
20:00 5 J/kg 9.5 K 0 % 0 % 0 % 0 m²/s² 0 0 9.86 61
21:00 0 J/kg 9.3 K 0 % 0 % 0 % 0 m²/s² 0 0 9.63 61
22:00 0 J/kg 8.4 K 0 % 0 % 0 % 0 m²/s² 0 0 8.73 61
23:00 0 J/kg 9.1 K 0 % 0 % 0 % 0 m²/s² 0 0 9.34 61
 05:18     20:47    Daglengte: 15:29 Zondag 29 Mei
00:00 0 J/kg 9.7 K 0 % 0 % 0 % 0 m²/s² 0 0 10.06 61
01:00 0 J/kg 9.4 K 0 % 0 % 0 % 0 m²/s² 0 0 9.85 61
02:00 0 J/kg 9.7 K 0 % 0 % 0 % 0 m²/s² 0 0 10.54 61
03:00 0 J/kg 10.2 K 0 % 0 % 0 % 0 m²/s² 0 0 11.49 61
04:00 0 J/kg 10.1 K 0 % 0 % 0 % 0 m²/s² 0 0 11.63 61
05:00 0 J/kg 9.9 K 0 % 0 % 0 % 0 m²/s² 0 0 11.97 61
06:00 0 J/kg 9.4 K 0 % 0 % 0 % 0 m²/s² 0 0 12.04 61
Temp Baro Wind Neerslag
  EWN Forecast EWN WRFDA DWD ICON FMI HIRLAM MET Norway GFS
 05:20     20:44    Daglengte: 15:24 Vandaag
08:00 14.8° 1022.9 hPa 1.3 m/s 0.0 mm 14.9° 1020.5 hPa 1.3 m/s 0.6 mm 14.6° 1022.7 hPa 1.3 m/s -2.0 mm 15.7° 1023.2 hPa 2.1 m/s 0.0 mm 14.5° 1022.6 hPa 0.7 m/s
11:00 17.0° 1023.4 hPa 2.0 m/s 0.0 mm 19.3° 1021.4 hPa 2.1 m/s 0.9 mm 16.4° 1023.2 hPa 1.6 m/s 0.0 mm 19.6° 1023.6 hPa 3.0 m/s 0.0 mm 16.9° 1023.5 hPa 1.5 m/s
14:00 19.3° 1022.5 hPa 2.1 m/s 0.0 mm 22.1° 1020.6 hPa 2.5 m/s 1.0 mm 17.8° 1022.3 hPa 2.2 m/s 0.0 mm 21.5° 1022.6 hPa 1.3 m/s 0.0 mm 20.1° 1022.5 hPa 1.6 m/s
17:00 21.0° 1021.0 hPa 1.7 m/s 0.0 mm 24.0° 1018.1 hPa 0.4 m/s 1.2 mm 19.3° 1021.0 hPa 2.0 m/s 0.0 mm 23.6° 1021.3 hPa 1.2 m/s 0.0 mm 21.4° 1020.9 hPa 1.1 m/s
20:00 19.1° 1021.1 hPa 1.5 m/s 0.0 mm 19.7° 1019.4 hPa 1.4 m/s 2.3 mm 17.2° 1021.1 hPa 1.1 m/s 0.0 mm 21.8° 1021.5 hPa 1.5 m/s 0.0 mm 18.1° 1021.6 hPa 0.6 m/s
23:00 16.4° 1022.5 hPa 0.9 m/s 0.0 mm 17.2° 1021.4 hPa 0.7 m/s 8.9 mm 15.0° 1022.2 hPa 0.9 m/s 0.0 mm 17.1° 1023.2 hPa 1.2 m/s 0.0 mm 15.5° 1023.2 hPa 0.4 m/s
 05:19     20:45    Daglengte: 15:26 Morgen
02:00 14.9° 1022.1 hPa 1.1 m/s 0.0 mm 14.3° 1020.6 hPa 1.4 m/s 15.3 mm 13.7° 1022.3 hPa 0.9 m/s 0.0 mm 15.2° 1022.8 hPa 0.9 m/s 0.0 mm 14.9° 1022.6 hPa 0.3 m/s
05:00 13.4° 1021.3 hPa 0.9 m/s 0.0 mm 13.4° 1020.0 hPa 1.6 m/s 15.3 mm 13.2° 1021.3 hPa 0.7 m/s 0.0 mm 13.3° 1022.5 hPa 0.5 m/s 0.0 mm 13.9° 1021.4 hPa 0.3 m/s
08:00 16.5° 1021.1 hPa 0.6 m/s 0.0 mm 17.8° 1020.2 hPa 0.2 m/s 15.3 mm 16.3° 1021.2 hPa 0.5 m/s 0.0 mm 17.6° 1021.2 hPa 0.4 m/s 0.0 mm 17.5° 1021.3 hPa 0.3 m/s
11:00 21.1° 1019.5 hPa 1.0 m/s 0.0 mm 21.9° 1018.9 hPa 0.6 m/s 15.3 mm 19.5° 1020.0 hPa 0.9 m/s 0.0 mm 24.4° 1019.3 hPa 1.1 m/s 0.0 mm 21.7° 1019.4 hPa 0.6 m/s
14:00 24.2° 1016.8 hPa 0.8 m/s 0.0 mm 24.9° 1016.7 hPa 1.6 m/s 15.5 mm 23.7° 1016.7 hPa 0.9 m/s 0.0 mm 24.3° 1017.8 hPa 0.7 m/s 0.0 mm 22.7° 1017.6 hPa 1.1 m/s
17:00 22.8° 1015.0 hPa 1.5 m/s 1.8 mm 20.8° 1015.8 hPa 4.9 m/s 17.2 mm 23.1° 1014.7 hPa 0.6 m/s 0.3 mm 23.4° 1016.6 hPa 2.7 m/s 0.0 mm 22.3° 1015.5 hPa 0.3 m/s
20:00 20.5° 1015.1 hPa 1.8 m/s 3.8 mm 17.9° 1015.7 hPa 2.0 m/s 25.2 mm 19.7° 1015.0 hPa 1.8 m/s 0.5 mm 20.9° 1016.2 hPa 2.4 m/s 0.0 mm 18.6° 1015.6 hPa 1.0 m/s
23:00 17.4° 1016.2 hPa 1.0 m/s 3.9 mm 15.7° 1016.1 hPa 0.6 m/s 30.1 mm 16.0° 1016.4 hPa 0.7 m/s 3.6 mm 17.7° 1017.5 hPa 1.2 m/s 0.0 mm 15.8° 1016.6 hPa 1.1 m/s
 05:18     20:46    Daglengte: 15:28 Zaterdag 28 Mei
02:00 15.8° 1015.4 hPa 1.1 m/s 3.0 mm 16.2° 1015.8 hPa 0.9 m/s 30.3 mm 15.6° 1015.6 hPa 0.8 m/s 0.5 mm 15.1° 1016.6 hPa 1.1 m/s 0.0 mm 15.3° 1015.4 hPa 1.1 m/s
05:00 14.7° 1013.8 hPa 0.9 m/s 7.5 mm 12.0° 1014.7 hPa 1.0 m/s 30.5 mm 14.6° 1014.1 hPa 1.0 m/s 0.9 mm 15.1° 1013.8 hPa 0.9 m/s
08:00 15.6° 1014.0 hPa 1.6 m/s 11.0 mm 14.8° 1015.4 hPa 0.9 m/s 30.5 mm 15.6° 1014.0 hPa 1.9 m/s 1.3 mm 15.2° 1013.9 hPa 1.2 m/s
11:00 15.3° 1014.0 hPa 2.4 m/s 8.5 mm 17.6° 1014.9 hPa 1.7 m/s 30.5 mm 15.1° 1014.0 hPa 2.5 m/s 1.5 mm 13.8° 1014.7 hPa 1.5 m/s
14:00 14.9° 1014.1 hPa 3.4 m/s 8.5 mm 19.4° 1014.8 hPa 1.4 m/s 30.5 mm 12.8° 1014.4 hPa 3.5 m/s 0.8 mm 12.1° 1016.6 hPa 1.8 m/s
17:00 12.8° 1014.4 hPa 2.6 m/s 12.5 mm 18.4° 1014.5 hPa 2.5 m/s 30.5 mm 11.3° 1014.5 hPa 2.6 m/s 2.3 mm 10.9° 1017.4 hPa 1.5 m/s
20:00 11.8° 1014.6 hPa 2.2 m/s 8.7 mm 14.8° 1015.9 hPa 3.7 m/s 30.5 mm 10.6° 1014.6 hPa 2.2 m/s 2.0 mm 10.3° 1017.4 hPa 0.9 m/s
23:00 10.8° 1015.3 hPa 2.8 m/s 8.8 mm 11.7° 1018.5 hPa 3.1 m/s 30.5 mm 9.8° 1014.5 hPa 2.0 m/s 3.4 mm 9.4° 1018.3 hPa 1.0 m/s
 05:18     20:47    Daglengte: 15:29 Zondag 29 Mei
02:00 8.7° 1014.3 hPa 2.1 m/s 11.2 mm 7.9° 1017.2 hPa 1.4 m/s 30.5 mm 8.9° 1013.6 hPa 2.3 m/s 1.5 mm 9.0° 1017.7 hPa 1.4 m/s
05:00 7.0° 1013.4 hPa 1.4 m/s 13.7 mm 5.7° 1015.6 hPa 1.0 m/s 30.5 mm 7.3° 1012.9 hPa 1.6 m/s 5.2 mm 7.7° 1016.7 hPa 1.1 m/s
08:00 7.6° 1013.2 hPa 2.4 m/s 13.7 mm 11.3° 1015.2 hPa 2.7 m/s 30.5 mm 6.6° 1012.7 hPa 2.3 m/s 5.2 mm 8.1° 1016.3 hPa 0.7 m/s
11:00 11.3° 1014.1 hPa 1.5 m/s 23.9 mm 11.3° 1014.1 hPa 1.5 m/s 23.9 mm
14:00 15.6° 1010.4 hPa 2.4 m/s 24.1 mm 15.6° 1010.4 hPa 2.4 m/s 24.0 mm
17:00 15.5° 1009.3 hPa 2.6 m/s 24.1 mm 15.5° 1009.3 hPa 2.6 m/s 24.1 mm
20:00 11.9° 1010.5 hPa 1.6 m/s 24.1 mm 11.9° 1010.5 hPa 1.6 m/s 24.1 mm
23:00 7.7° 1012.8 hPa 0.5 m/s 24.1 mm 7.7° 1012.8 hPa 0.5 m/s 24.1 mm
 05:17     20:48    Daglengte: 15:31 Maandag 30 Mei
02:00 6.4° 1012.3 hPa 0.7 m/s 24.1 mm 6.4° 1012.3 hPa 0.7 m/s 24.1 mm
05:00 5.8° 1012.2 hPa 0.8 m/s 24.1 mm 5.8° 1012.2 hPa 0.8 m/s 24.1 mm
08:00 10.8° 1011.6 hPa 0.7 m/s 24.1 mm 10.8° 1011.6 hPa 0.7 m/s 24.1 mm
11:00 16.5° 1010.2 hPa 1.1 m/s 24.1 mm 16.5° 1010.2 hPa 1.1 m/s 24.1 mm
14:00 17.5° 1010.1 hPa 1.3 m/s 24.1 mm 17.5° 1010.1 hPa 1.3 m/s 24.1 mm
17:00 17.6° 1010.7 hPa 1.6 m/s 24.3 mm 17.6° 1010.7 hPa 1.6 m/s 24.3 mm
20:00 14.2° 1012.5 hPa 1.6 m/s 24.3 mm 14.2° 1012.5 hPa 1.6 m/s 24.3 mm
23:00 10.5° 1015.8 hPa 1.3 m/s 24.4 mm 10.5° 1015.8 hPa 1.3 m/s 24.4 mm
 05:16     20:49    Daglengte: 15:33 Dinsdag 31 Mei
02:00 9.5° 1016.9 hPa 1.4 m/s 24.4 mm 9.5° 1016.9 hPa 1.4 m/s 24.4 mm
05:00 9.4° 1017.7 hPa 1.5 m/s 24.4 mm 9.4° 1017.7 hPa 1.5 m/s 24.4 mm
08:00 14.0° 1017.0 hPa 1.5 m/s 24.4 mm 14.0° 1017.0 hPa 1.5 m/s 24.4 mm
11:00 20.4° 1016.0 hPa 1.3 m/s 24.4 mm 20.4° 1016.0 hPa 1.3 m/s 24.4 mm
14:00 22.9° 1015.1 hPa 2.1 m/s 24.4 mm 22.9° 1015.1 hPa 2.1 m/s 24.4 mm
17:00 23.0° 1014.2 hPa 2.6 m/s 24.4 mm 23.0° 1014.2 hPa 2.6 m/s 24.4 mm
20:00 17.4° 1015.8 hPa 2.3 m/s 24.4 mm 17.4° 1015.8 hPa 2.3 m/s 24.4 mm
23:00 13.2° 1018.1 hPa 2.2 m/s 24.4 mm 13.2° 1018.1 hPa 2.2 m/s 24.4 mm
 05:16     20:50    Daglengte: 15:34 Woensdag 01 Jun
02:00 12.6° 1017.9 hPa 2.2 m/s 24.4 mm 12.6° 1017.9 hPa 2.2 m/s 24.4 mm
05:00 13.2° 1016.9 hPa 1.9 m/s 24.4 mm 13.2° 1016.9 hPa 1.9 m/s 24.4 mm
08:00 17.7° 1017.2 hPa 2.0 m/s 24.4 mm 17.7° 1017.2 hPa 2.0 m/s 24.4 mm
11:00 24.2° 1016.6 hPa 1.5 m/s 24.4 mm 24.2° 1016.6 hPa 1.5 m/s 24.4 mm
14:00 27.3° 1015.3 hPa 2.0 m/s 24.4 mm 27.3° 1015.3 hPa 2.0 m/s 24.4 mm
17:00 26.8° 1015.1 hPa 2.6 m/s 24.4 mm 26.8° 1015.1 hPa 2.6 m/s 24.4 mm
20:00 20.5° 1016.8 hPa 2.1 m/s 24.4 mm 20.5° 1016.8 hPa 2.1 m/s 24.4 mm
23:00 16.5° 1018.6 hPa 2.0 m/s 24.4 mm 16.5° 1018.6 hPa 2.0 m/s 24.4 mm
 05:15     20:51    Daglengte: 15:36 Donderdag 02 Jun
02:00 15.8° 1018.3 hPa 1.9 m/s 24.4 mm 15.8° 1018.3 hPa 1.9 m/s 24.4 mm
05:00 15.7° 1017.2 hPa 2.0 m/s 24.4 mm 15.7° 1017.2 hPa 2.0 m/s 24.4 mm
08:00 21.5° 1016.1 hPa 2.1 m/s 24.4 mm 21.5° 1016.1 hPa 2.1 m/s 24.4 mm
14:00 30.4° 1014.4 hPa 3.2 m/s 24.4 mm 30.4° 1014.4 hPa 3.2 m/s 24.4 mm
20:00 22.2° 1015.6 hPa 2.3 m/s 24.4 mm 22.2° 1015.6 hPa 2.3 m/s 24.4 mm
 05:15     20:52    Daglengte: 15:37 Vrijdag 03 Jun
02:00 17.1° 1017.4 hPa 2.1 m/s 24.4 mm 17.1° 1017.4 hPa 2.1 m/s 24.4 mm
08:00 22.3° 1017.6 hPa 0.2 m/s 24.4 mm 22.3° 1017.6 hPa 0.2 m/s 24.4 mm
14:00 31.0° 1014.7 hPa 2.6 m/s 24.4 mm 31.0° 1014.7 hPa 2.6 m/s 24.4 mm
20:00 23.3° 1014.8 hPa 2.0 m/s 24.4 mm 23.3° 1014.8 hPa 2.0 m/s 24.4 mm
 05:14     20:52    Daglengte: 15:38 Zaterdag 04 Jun
02:00 18.4° 1016.3 hPa 1.7 m/s 24.4 mm 18.4° 1016.3 hPa 1.7 m/s 24.4 mm
08:00 22.3° 1017.7 hPa 0.6 m/s 24.4 mm 22.3° 1017.7 hPa 0.6 m/s 24.4 mm
14:00 30.6° 1015.6 hPa 1.5 m/s 24.4 mm 30.6° 1015.6 hPa 1.5 m/s 24.4 mm
20:00 23.4° 1016.2 hPa 1.9 m/s 24.4 mm 23.4° 1016.2 hPa 1.9 m/s 24.4 mm
 05:14     20:53    Daglengte: 15:39 Zondag 05 Jun
02:00 14.2° 1015.1 hPa 0.7 m/s 2.5 mm
08:00 16.5° 1014.3 hPa 0.6 m/s 1.5 mm
14:00 22.2° 1012.7 hPa 1.1 m/s 2.4 mm
20:00 17.3° 1012.4 hPa 0.1 m/s 3.7 mm
 05:13     20:54    Daglengte: 15:41 Maandag 06 Jun
02:00 13.5° 1013.7 hPa 1.2 m/s 2.8 mm
08:00 15.8° 1013.2 hPa 1.0 m/s 1.5 mm
14:00 20.7° 1012.3 hPa 0.6 m/s 2.5 mm
20:00 17.3° 1012.2 hPa 0.4 m/s 2.6 mm
 05:13     20:55    Daglengte: 15:42 Dinsdag 07 Jun
02:00 12.9° 1013.8 hPa 1.0 m/s 1.4 mm
08:00 15.6° 1013.6 hPa 0.8 m/s 1.4 mm
14:00 20.8° 1012.1 hPa 1.2 m/s 2.6 mm
20:00 16.8° 1012.1 hPa 0.2 m/s 3.1 mm
 05:13     20:55    Daglengte: 15:42 Woensdag 08 Jun
02:00 12.9° 1013.7 hPa 1.0 m/s 2.2 mm
08:00 15.2° 1013.8 hPa 0.8 m/s 1.3 mm
14:00 21.3° 1012.7 hPa 1.0 m/s 1.7 mm
20:00 17.3° 1012.9 hPa 0.3 m/s 2.9 mm
 05:13     20:56    Daglengte: 15:43 Donderdag 09 Jun
02:00 12.9° 1014.3 hPa 0.9 m/s 1.9 mm
08:00 16.0° 1014.4 hPa 0.8 m/s 0.5 mm
14:00 22.0° 1013.5 hPa 1.0 m/s 1.8 mm
20:00 18.0° 1013.7 hPa 0.5 m/s 1.7 mm
 05:12     20:57    Daglengte: 15:45 Vrijdag 10 Jun
02:00 13.2° 1015.5 hPa 1.0 m/s 0.6 mm
FMI Hirlam - 7.5 km EWN WRFDA - 12 km DWD ICON - 7 km GFS - 25 km Basiskaart